[[{"header":{"parameterUnit":"m.s-1","parameterCategory":2,"la1":30.2991,"la2":30.254,"lo1":-89.0895,"lo2":-89.0444,"dy":0.0017,"dx":0.0017,"nx":28,"ny":28,"refTime":"2024-05-24T09:00:00:Z","depth":"0","parameterNumber":2,"parameterNumberName":"U-component_of_CURRENTS"},"data":[0,0,0,0,0,0,0,0,0,0,0,0,0,0,0,0,0,0,0,0,0,0,0,0,0,0,0,0,0,0,0,0,0,0,0,0,0,0,0,0,0,0,0,0,0,0,0,0,0,0,0,0,0,0,0,0,0,0,0.3328,0.3329,0,0.3398,0.3399,0.34,0.3382,0.338,0.3379,0.3378,0.3445,0.3448,0.3451,0,0,0,0,0,0,0,0,0,0,0,0,0,0.3251,0.3252,0.3328,0.3329,0.333,0.3398,0.3399,0.34,0.3382,0.338,0.3379,0.3377,0.3444,0.3448,0.3451,0,0,0,0,0,0,0,0,0,0,0,0,0,0.3298,0.3252,0.3328,0.333,0.3331,0.3398,0.3399,0.34,0.3382,0.338,0.3378,0.3376,0.3443,0.3447,0.3452,0.3519,0,0,0.3465,0.3467,0,0,0,0,0,0,0,0,0.3295,0.3301,0.3329,0.333,0.3331,0.338,0.3397,0.344,0.3383,0.3362,0.3378,0.3375,0.3425,0.3431,0.3447,0.3522,0.3525,0.3466,0.3469,0.3471,0.3472,0,0,0,0,0,0,0,0.3292,0.3298,0.3355,0.333,0.3332,0.3352,0.3356,0.3405,0.3403,0.3363,0.3362,0.3372,0.3425,0.3443,0.3449,0.3526,0.3466,0.347,0.3473,0.3474,0.3795,0.38,0,0,0,0,0,0,0.3284,0.3295,0.3353,0.3357,0.3309,0.3355,0.3359,0.3366,0.3402,0.3406,0.3374,0.3371,0.3436,0.3443,0.3451,0.361,0.3471,0.3475,0.3477,0.3789,0.3796,0.3802,0,0,0,0,0,0,0.3282,0.3288,0.335,0.3329,0.3338,0.3358,0.3366,0.3368,0.3399,0.3411,0.3414,0.3403,0.3435,0.3445,0.354,0.3609,0.3477,0.3481,0.3782,0.3791,0.3799,0.3878,0,0,0,0,0,0,0.328,0.3287,0.3293,0.3328,0.3339,0.3419,0.3368,0.3371,0.3407,0.3405,0.3437,0.344,0.3434,0.3534,0.3545,0.3613,0.3484,0.3775,0.3786,0.3796,0.3869,0.3889,0.3906,0,0,0,0,0,0.3276,0.3303,0.3293,0.33,0.3344,0.3422,0.3431,0.3437,0.3411,0.3451,0.3481,0.344,0.3611,0.3542,0.3553,0.3624,0.3769,0.3783,0.3796,0.386,0.3885,0.3906,0,0,0,0,0,0,0.3273,0.3305,0.3294,0.3326,0.3379,0.3419,0.3453,0.3457,0.3511,0.3507,0.3504,0.3514,0.3632,0.3636,0.3559,0.376,0.3689,0.3705,0.3734,0.3758,0.3776,0.3765,0.3488,0,0,0,0,0,0.3274,0.3301,0.3341,0.3372,0.3398,0.3428,0.3457,0.3471,0.3519,0.3539,0.3568,0.3619,0.3698,0.3728,0.3797,0.3892,0.3912,0.3957,0.3976,0.3991,0.3999,0.4108,0.4135,0.3845,0.3845,0.3845,0,0,0.3277,0.3302,0.3313,0.3374,0.3406,0.3475,0.3442,0.3508,0.3571,0.3542,0.3643,0.3691,0.3747,0.3864,0.3917,0.3866,0.4091,0.4007,0.4019,0.4019,0.4124,0.4152,0.4176,0.3854,0.3852,0.3851,0,0,0.3329,0.3327,0.3379,0.3428,0.3494,0.3522,0.3548,0.3613,0.3647,0.3752,0.3764,0.3856,0.3954,0.4015,0.4054,0.4227,0.4199,0.4256,0.432,0.4427,0.4449,0.447,0.4536,0.4562,0.4249,0.4249,0.4249,0,0.3334,0.3395,0.3411,0.3485,0.3529,0.3549,0.3629,0.3681,0.3773,0.3826,0.38,0.3999,0.4031,0.4185,0.424,0.4264,0.4304,0.4211,0.4444,0.4465,0.4484,0.4548,0.4575,0.4254,0.4254,0.4253,0.4253,0,0.3435,0.3481,0.3524,0.3609,0.3667,0.3741,0.3808,0.3882,0.3913,0.3964,0.4124,0.4184,0.4294,0.4333,0.4327,0.4502,0.4481,0.4459,0.4364,0.4517,0.4576,0.4602,0.4262,0.426,0.4259,0.4257,0,0,0.3456,0.3568,0.3582,0.3632,0.3735,0.3793,0.3913,0.4032,0.4113,0.4202,0.4329,0.4459,0.4476,0.4527,0.4552,0.4626,0.4788,0.4594,0.4597,0.462,0.5007,0.4927,0.4947,0.48,0.4805,0.4809,0.4992,0,0.3533,0.3658,0.3708,0.3833,0.3903,0.3962,0.4066,0.4171,0.4257,0.4387,0.4468,0.4597,0.4556,0.4615,0.4694,0.4784,0.4863,0.474,0.4891,0.4895,0.4773,0.4978,0.4736,0.4874,0.5018,0.5022,0.5025,0,0.3624,0.3692,0.3814,0.3932,0.3969,0.4046,0.42,0.4302,0.4474,0.4545,0.4675,0.4737,0.4897,0.4823,0.503,0.4953,0.4993,0.503,0.5037,0.4949,0.4866,0.4751,0.4916,0.4825,0.5065,0.5062,0.5059,0,0.3627,0.3769,0.3855,0.3898,0.4038,0.411,0.419,0.435,0.4454,0.4653,0.4753,0.4922,0.503,0.5126,0.5196,0.5136,0.5397,0.5325,0.529,0.5283,0.51,0.5068,0.5157,0.5473,0.5472,0.5472,0.5471,0,0.3689,0.3761,0.3856,0.3906,0.402,0.4113,0.4259,0.4368,0.4547,0.4691,0.4825,0.4972,0.5112,0.5261,0.5289,0.539,0.5484,0.535,0.5352,0.5124,0.5094,0.502,0.4974,0.5479,0.5477,0.5476,0.5475,0,0.3697,0.3755,0.3859,0.3985,0.4026,0.4106,0.4275,0.4386,0.4549,0.4751,0.4824,0.5064,0.5261,0.5375,0.5554,0.5513,0.5457,0.5601,0.5306,0.5269,0.5104,0.507,0.4958,0.4817,0.5604,0.5604,0.5603,0,0.3725,0.3775,0.3889,0.3944,0.4005,0.4124,0.4214,0.4373,0.4491,0.4797,0.4896,0.5156,0.5313,0.5548,0.5548,0.562,0.5463,0.5413,0.5252,0.5113,0.5079,0.4856,0.4728,0.5049,0.5044,0.504,0.5037,0,0.378,0.3803,0.3875,0.3969,0.4053,0.4147,0.4277,0.435,0.4557,0.4709,0.4923,0.5073,0.5317,0.5304,0.5408,0.5403,0.5147,0.5331,0.528,0.4751,0.4421,0.4277,0.4895,0.5001,0.5005,0.5007,0.5009,0.5011,0.3817,0.3849,0.392,0.4004,0.4086,0.414,0.4153,0.4282,0.4403,0.4552,0.4799,0.4906,0.5028,0.5141,0.512,0.4946,0.4932,0.4782,0.4786,0.4598,0.4353,0.4884,0.4929,0.4932,0.4935,0.4937,0.4939,0,0.3855,0.3873,0.3957,0.4012,0.4044,0.4099,0.4172,0.4131,0.4163,0.4351,0.4471,0.4561,0.4561,0.4626,0.458,0.4435,0.4175,0.4326,0.3969,0.3897,0.4471,0.4339,0.4142,0.4142,0.4142,0.4142,0.4142,0.4142,0.3876,0.3919,0.393,0.3946,0.3964,0.3895,0.3873,0.3824,0.3874,0.3878,0.3907,0.4033,0.4276,0.4342,0.4209,0.4091,0.3809,0.3592,0.3649,0.4085,0.4126,0.4165,0.4033,0.3775,0.3774,0.2842,0.2835,0.283]},{"header":{"parameterUnit":"m.s-1","parameterCategory":2,"la1":30.2991,"la2":30.254,"lo1":-89.0895,"lo2":-89.0444,"dy":0.0017,"dx":0.0017,"nx":28,"ny":28,"refTime":"2024-05-24T09:00:00:Z","depth":"0","parameterNumber":3,"parameterNumberName":"V-component_of_CURRENTS"},"data":[0,0,0,0,0,0,0,0,0,0,0,0,0,0,0,0,0,0,0,0,0,0,0,0,0,0,0,0,0,0,0,0,0,0,0,0,0,0,0,0,0,0,0,0,0,0,0,0,0,0,0,0,0,0,0,0,0,0,0.0125,0.0124,0,0.0067,0.0066,0.0065,0.0017,0.0016,0.0016,0.0015,-0.0085,-0.0087,-0.0089,0,0,0,0,0,0,0,0,0,0,0,0,0,0.0157,0.0157,0.0125,0.0124,0.0123,0.0067,0.0066,0.0065,0.0017,0.0016,0.0016,0.0015,-0.0084,-0.0087,-0.0089,0,0,0,0,0,0,0,0,0,0,0,0,0,0.0125,0.0157,0.0125,0.0093,0.009,0.0067,0.0066,0.0065,0.0017,0.0016,0.0015,0.0015,-0.0083,-0.0086,-0.009,-0.0098,0,0,-0.01,-0.0102,0,0,0,0,0,0,0,0,0.0127,0.0123,0.0098,0.0095,0.0092,0.0049,0.0041,0.0009,0.0017,0.0043,0.0015,0.0015,-0.0043,-0.0049,-0.006,-0.0103,-0.0107,-0.01,-0.0102,-0.0104,-0.0105,0,0,0,0,0,0,0,0.0129,0.0125,0.0101,0.0098,0.0094,0.007,0.0065,0.0034,0.0003,0.0041,0.0038,0.0033,-0.0045,-0.0056,-0.0063,-0.0108,-0.01,-0.0103,-0.0105,-0.0107,-0.0158,-0.0157,0,0,0,0,0,0,0.0141,0.0128,0.0102,0.0099,0.0109,0.007,0.0064,0.0063,0.0004,-0.0005,0.0034,0.0031,-0.005,-0.0059,-0.0066,-0.0051,-0.0104,-0.0107,-0.0109,-0.0158,-0.0158,-0.0157,0,0,0,0,0,0,0.0142,0.0139,0.0105,0.0113,0.0107,0.007,0.0069,0.0062,0.0053,-0.0001,-0.0011,0.0033,-0.0051,-0.0062,-0.008,-0.0056,-0.0109,-0.0112,-0.0159,-0.0158,-0.0157,-0.0038,0,0,0,0,0,0,0.0143,0.014,0.0143,0.0114,0.0107,0.011,0.0069,0.0061,0.0051,0.0047,-0.0005,-0.0015,-0.0052,-0.0074,-0.0083,-0.0062,-0.0114,-0.016,-0.0159,-0.0158,-0.0043,-0.0033,-0.0025,0,0,0,0,0,0.0145,0.0161,0.0143,0.014,0.0112,0.0111,0.0106,0.0076,0.0052,0.0063,0.0024,-0.0013,-0.0073,-0.0076,-0.0087,-0.0066,-0.0161,-0.0159,-0.0158,-0.0047,-0.0035,-0.0025,0,0,0,0,0,0,0.0175,0.0156,0.0137,0.0145,0.0134,0.0104,0.0107,0.0084,0.0061,0.0052,-0.0002,-0.0014,-0.0024,-0.0063,-0.0065,-0.0079,-0.0124,-0.0125,-0.0037,-0.0026,-0.0017,0.0031,-0.0117,0,0,0,0,0,0.0183,0.0189,0.0167,0.0173,0.0171,0.0138,0.0132,0.0113,0.0089,0.0077,0.0042,0.0001,-0.0027,-0.0039,-0.0073,-0.0076,-0.0101,-0.0072,-0.0063,-0.0054,-0.0024,-0.0045,-0.0034,-0.0152,-0.0152,-0.0152,0,0,0.0195,0.0185,0.0187,0.018,0.0165,0.0184,0.0133,0.0133,0.0151,0.007,0.0079,0.003,-0.0023,-0.0025,-0.0033,-0.0052,-0.0037,-0.0053,-0.0045,-0.0018,-0.0042,-0.0031,-0.002,-0.0151,-0.0151,-0.0151,0,0,0.0238,0.0216,0.0243,0.0245,0.0234,0.0215,0.0221,0.0198,0.019,0.0187,0.0135,0.0109,0.0063,0.0042,0.0021,0.006,0.0008,0.0038,0.013,0.0109,0.012,0.0128,0.0109,0.0115,0.0048,0.0048,0.0048,0,0.0252,0.0285,0.0251,0.0285,0.0301,0.0238,0.0283,0.0266,0.0241,0.0255,0.0206,0.016,0.0101,0.012,0.0125,0.0084,0.0064,0.0096,0.0124,0.0132,0.0139,0.0117,0.0122,0.0054,0.0053,0.0053,0.0052,0,0.0326,0.0351,0.037,0.0391,0.0402,0.0427,0.0408,0.0414,0.0383,0.0367,0.0371,0.0294,0.0278,0.0241,0.0191,0.0219,0.0185,0.0135,0.0105,0.0159,0.0131,0.0135,0.0063,0.006,0.0059,0.0057,0,0,0.0361,0.0413,0.042,0.0469,0.0466,0.0495,0.0522,0.0548,0.0596,0.0534,0.0597,0.0512,0.0469,0.0444,0.0376,0.0347,0.0354,0.0272,0.0268,0.027,0.0316,0.0276,0.0275,0.031,0.0312,0.0313,0.0277,0,0.0431,0.0534,0.0532,0.0629,0.0686,0.0661,0.0709,0.072,0.0706,0.0745,0.0664,0.0677,0.0547,0.0551,0.05,0.0401,0.0369,0.0369,0.0251,0.0248,0.0219,0.028,0.0265,0.0231,0.028,0.028,0.0281,0,0.0512,0.0575,0.0693,0.0791,0.0814,0.0861,0.0947,0.098,0.0995,0.099,0.0971,0.0905,0.0867,0.0741,0.0607,0.0615,0.0484,0.0387,0.0382,0.0313,0.0215,0.0183,0.0235,0.0018,0.0285,0.0285,0.0285,0,0.0593,0.0693,0.0801,0.0833,0.0921,0.0984,0.1026,0.1064,0.1128,0.1157,0.1205,0.1121,0.111,0.0941,0.0713,0.0673,0.0557,0.0474,0.0316,0.0311,0.0262,0.025,0.0108,0.0386,0.0386,0.0386,0.0386,0,0.0683,0.0771,0.0858,0.0927,0.1073,0.1096,0.124,0.127,0.134,0.1451,0.1345,0.1413,0.1159,0.1047,0.081,0.0587,0.0628,0.0363,0.0311,0.03,0.0293,0.0071,-0.0054,0.0384,0.0385,0.0385,0.0385,0,0.0763,0.0811,0.0952,0.1074,0.1122,0.1231,0.1375,0.1477,0.1527,0.1673,0.1698,0.1648,0.1507,0.1227,0.0967,0.0739,0.0378,0.041,0.0414,0.0365,0.0014,-0.0103,-0.0288,-0.039,0.0256,0.0254,0.0254,0,0.0817,0.09,0.1065,0.1157,0.1221,0.1373,0.1483,0.1565,0.1678,0.1827,0.1914,0.184,0.1821,0.1422,0.0983,0.0589,0.0348,0.0325,0.0237,0.0023,-0.0146,-0.0238,-0.0316,0.0212,0.021,0.021,0.0209,0,0.0926,0.0981,0.1093,0.1281,0.1417,0.1575,0.1737,0.1857,0.1982,0.2126,0.2288,0.2298,0.192,0.1522,0.0964,0.0676,0.0171,0.0294,0.0073,-0.0175,-0.0282,-0.0413,0.0202,0.0201,0.0201,0.0202,0.0202,0.0203,0.1005,0.1093,0.1237,0.1413,0.1569,0.1762,0.1906,0.2091,0.2311,0.254,0.2538,0.2592,0.2019,0.1259,0.0841,0.0087,0.0086,-0.014,-0.0257,-0.0325,-0.0443,0.0162,0.0097,0.0097,0.0098,0.0098,0.0098,0,0.1097,0.1192,0.1361,0.1567,0.1742,0.1812,0.2065,0.2223,0.2499,0.2703,0.2845,0.2585,0.1881,0.1156,0.0142,-0.0367,-0.055,-0.0638,-0.078,-0.083,-0.029,-0.0313,-0.0468,-0.0468,-0.0468,-0.0468,-0.0468,-0.0467,0.1153,0.1306,0.1384,0.167,0.182,0.2053,0.22,0.245,0.2634,0.2893,0.2925,0.2893,0.2352,0.059,-0.0605,-0.0879,-0.12,-0.1298,-0.1447,-0.11,-0.1063,-0.1027,-0.1078,-0.1392,-0.1393,-0.1936,-0.1941,-0.1946]}],[{"header":{"parameterUnit":"m.s-1","parameterCategory":2,"la1":30.2991,"la2":30.254,"lo1":-89.0895,"lo2":-89.0444,"dy":0.0017,"dx":0.0017,"nx":28,"ny":28,"refTime":"2024-05-24T09:00:00:Z","depth":"2","parameterNumber":2,"parameterNumberName":"U-component_of_CURRENTS"},"data":[0,0,0,0,0,0,0,0,0,0,0,0,0,0,0,0,0,0,0,0,0,0,0,0,0,0,0,0,0,0,0,0,0,0,0,0,0,0,0,0,0,0,0,0,0,0,0,0,0,0,0,0,0,0,0,0,0,0,0.3034,0.3035,0,0.3093,0.3094,0.3094,0.3094,0.3093,0.3093,0.3092,0.3149,0.3151,0.3153,0,0,0,0,0,0,0,0,0,0,0,0,0,0.2966,0.2967,0.3034,0.3035,0.3036,0.3093,0.3094,0.3095,0.3094,0.3093,0.3093,0.3092,0.3148,0.315,0.3153,0,0,0,0,0,0,0,0,0,0,0,0,0,0.3007,0.2967,0.3034,0.3043,0.3045,0.3093,0.3094,0.3095,0.3094,0.3093,0.3092,0.3091,0.3147,0.315,0.3153,0.3194,0,0,0.3163,0.3165,0,0,0,0,0,0,0,0,0.3004,0.3009,0.3041,0.3043,0.3044,0.3086,0.3091,0.3128,0.3095,0.3075,0.3092,0.3091,0.3129,0.3133,0.3146,0.3197,0.3199,0.3163,0.3165,0.3167,0.3168,0,0,0,0,0,0,0,0.3001,0.3007,0.3057,0.3042,0.3044,0.306,0.3064,0.3098,0.3106,0.3076,0.3077,0.3085,0.3129,0.3143,0.3147,0.32,0.3163,0.3166,0.3168,0.3169,0.3402,0.3406,0,0,0,0,0,0,0.2995,0.3004,0.3055,0.3059,0.3022,0.3062,0.3066,0.3073,0.3106,0.311,0.3086,0.3085,0.3138,0.3143,0.3149,0.3282,0.3167,0.317,0.3172,0.3398,0.3403,0.3408,0,0,0,0,0,0,0.2993,0.2999,0.3052,0.3033,0.3041,0.3064,0.3072,0.3075,0.3104,0.3113,0.3117,0.3113,0.3137,0.3144,0.3214,0.3281,0.3171,0.3174,0.3393,0.34,0.3405,0.3495,0,0,0,0,0,0,0.2991,0.2998,0.3006,0.3033,0.3042,0.3102,0.3073,0.3077,0.311,0.3109,0.3138,0.3141,0.3137,0.321,0.3218,0.3283,0.3177,0.3388,0.3396,0.3403,0.3486,0.3503,0.3518,0,0,0,0,0,0.2988,0.3005,0.3006,0.3013,0.3051,0.3104,0.3111,0.3122,0.3112,0.3141,0.3168,0.3141,0.3266,0.3216,0.3224,0.3292,0.3384,0.3394,0.3403,0.3479,0.35,0.3518,0,0,0,0,0,0,0.298,0.3008,0.3009,0.3033,0.3074,0.3104,0.3129,0.3139,0.3183,0.3187,0.3185,0.3193,0.3294,0.3284,0.3228,0.3389,0.3326,0.3337,0.3381,0.3401,0.3416,0.3423,0.3179,0,0,0,0,0,0.2983,0.3003,0.3037,0.3061,0.3081,0.311,0.3133,0.3152,0.3189,0.3206,0.323,0.3272,0.334,0.3359,0.3416,0.3483,0.3494,0.354,0.3556,0.3569,0.3585,0.3668,0.3691,0.3439,0.3439,0.3439,0,0,0.2985,0.3005,0.3015,0.3061,0.3089,0.314,0.3122,0.3176,0.3238,0.3208,0.33,0.3337,0.3379,0.3473,0.3515,0.3466,0.3649,0.3581,0.3591,0.3601,0.368,0.3704,0.3726,0.3446,0.3444,0.3443,0,0,0.3015,0.3022,0.3056,0.3097,0.3154,0.3175,0.3197,0.3252,0.3297,0.3389,0.3402,0.3477,0.3554,0.3602,0.3634,0.3772,0.3747,0.3793,0.3853,0.3934,0.3954,0.3972,0.4015,0.4036,0.3778,0.3778,0.3778,0,0.302,0.3065,0.3078,0.3133,0.3174,0.3195,0.3259,0.3315,0.3393,0.3449,0.3435,0.3606,0.3625,0.3757,0.3799,0.3808,0.3831,0.3767,0.3951,0.3969,0.3986,0.4025,0.4048,0.3784,0.3783,0.3783,0.3782,0,0.3082,0.3126,0.3155,0.3224,0.327,0.3331,0.3402,0.3472,0.3519,0.3572,0.3729,0.3778,0.3869,0.3898,0.3883,0.4027,0.3999,0.3974,0.389,0.4016,0.405,0.4072,0.3792,0.379,0.3788,0.3787,0,0,0.3076,0.3178,0.319,0.324,0.3327,0.3372,0.3489,0.36,0.3685,0.3781,0.3902,0.4024,0.4043,0.4084,0.4096,0.4148,0.4274,0.4102,0.4104,0.4122,0.4433,0.4315,0.4326,0.4274,0.4279,0.4282,0.4405,0,0.3127,0.3233,0.3275,0.3381,0.3444,0.3508,0.3607,0.3712,0.3808,0.3928,0.4021,0.4141,0.4119,0.4168,0.4231,0.4282,0.4336,0.4242,0.4328,0.4331,0.4192,0.435,0.4018,0.4092,0.4426,0.4429,0.4432,0,0.3178,0.3245,0.3355,0.3471,0.3503,0.357,0.3724,0.3818,0.3985,0.407,0.4203,0.4263,0.4401,0.4342,0.4508,0.4447,0.4454,0.4468,0.4473,0.4346,0.4254,0.4026,0.4118,0.4467,0.4464,0.4462,0.4459,0,0.317,0.3299,0.3384,0.3426,0.3559,0.3634,0.3706,0.3864,0.3969,0.4161,0.426,0.4418,0.4519,0.4586,0.462,0.458,0.4759,0.4706,0.4611,0.4601,0.4329,0.4287,0.4815,0.4815,0.4814,0.4814,0.4814,0,0.321,0.3278,0.3389,0.3438,0.3547,0.3637,0.3781,0.3885,0.4055,0.4185,0.4325,0.4462,0.4585,0.4689,0.4689,0.4728,0.4829,0.4664,0.4648,0.4351,0.4312,0.4635,0.4613,0.4818,0.4817,0.4817,0.4816,0,0.3204,0.3272,0.3366,0.3501,0.3548,0.3622,0.3798,0.3901,0.4072,0.4253,0.4321,0.4536,0.4685,0.4765,0.4875,0.4819,0.4852,0.4819,0.4445,0.4383,0.462,0.4601,0.4765,0.4762,0.476,0.4758,0.4756,0,0.3218,0.3266,0.3388,0.3434,0.3501,0.363,0.3718,0.3891,0.3992,0.4289,0.4353,0.4575,0.4675,0.4804,0.4774,0.4779,0.4836,0.4433,0.4302,0.4659,0.4627,0.4611,0.4596,0.3978,0.397,0.3964,0.3958,0,0.3235,0.3264,0.3336,0.3445,0.3529,0.3611,0.3739,0.3806,0.4014,0.4148,0.4314,0.4418,0.4595,0.446,0.4476,0.4423,0.4411,0.4303,0.4814,0.4033,0.3924,0.389,0.39,0.3901,0.3907,0.3911,0.3914,0.3917,0.3235,0.3264,0.3355,0.3423,0.3506,0.3535,0.3572,0.3681,0.3773,0.3876,0.4093,0.4121,0.4187,0.4058,0.3937,0.3865,0.4158,0.3947,0.3964,0.3988,0.3867,0.3759,0.3681,0.3686,0.3689,0.3693,0.3695,0,0.3213,0.3237,0.3324,0.3364,0.3385,0.3482,0.3535,0.3493,0.3487,0.361,0.3674,0.342,0.3362,0.3438,0.3261,0.325,0.3189,0.3097,0.2991,0.3053,0.3107,0.2936,0.2506,0.2501,0.2497,0.2493,0,0,0.3204,0.3228,0.323,0.3199,0.325,0.321,0.3203,0.3124,0.3132,0.3005,0.2983,0.3215,0.3366,0.2892,0.2835,0.2644,0.2814,0.254,0.351,0.3451,0.3498,0.3633,0.3446,0,0,0,0,0]},{"header":{"parameterUnit":"m.s-1","parameterCategory":2,"la1":30.2991,"la2":30.254,"lo1":-89.0895,"lo2":-89.0444,"dy":0.0017,"dx":0.0017,"nx":28,"ny":28,"refTime":"2024-05-24T09:00:00:Z","depth":"2","parameterNumber":3,"parameterNumberName":"V-component_of_CURRENTS"},"data":[0,0,0,0,0,0,0,0,0,0,0,0,0,0,0,0,0,0,0,0,0,0,0,0,0,0,0,0,0,0,0,0,0,0,0,0,0,0,0,0,0,0,0,0,0,0,0,0,0,0,0,0,0,0,0,0,0,0,0.0005,0.0004,0,-0.0051,-0.0052,-0.0052,-0.0095,-0.0096,-0.0096,-0.0096,-0.019,-0.0192,-0.0194,0,0,0,0,0,0,0,0,0,0,0,0,0,0.0033,0.0033,0.0005,0.0004,0.0003,-0.0051,-0.0052,-0.0053,-0.0095,-0.0096,-0.0096,-0.0096,-0.0189,-0.0192,-0.0195,0,0,0,0,0,0,0,0,0,0,0,0,0,0.0003,0.0033,0.0005,-0.0024,-0.0027,-0.0051,-0.0052,-0.0053,-0.0095,-0.0096,-0.0096,-0.0097,-0.0189,-0.0192,-0.0195,-0.0205,0,0,-0.0205,-0.0206,0,0,0,0,0,0,0,0,0.0005,0.0002,-0.0019,-0.0022,-0.0025,-0.0066,-0.0076,-0.0105,-0.0095,-0.007,-0.0096,-0.0097,-0.0151,-0.0158,-0.0168,-0.021,-0.0214,-0.0205,-0.0207,-0.0209,-0.021,0,0,0,0,0,0,0,0.0007,0.0004,-0.0018,-0.002,-0.0023,-0.0048,-0.0052,-0.0082,-0.0109,-0.0072,-0.0075,-0.008,-0.0153,-0.0164,-0.017,-0.0215,-0.0205,-0.0208,-0.021,-0.0211,-0.0268,-0.0268,0,0,0,0,0,0,0.0018,0.0006,-0.0016,-0.002,-0.001,-0.0048,-0.0053,-0.0053,-0.0108,-0.0116,-0.008,-0.0082,-0.0158,-0.0166,-0.0174,-0.0164,-0.0209,-0.0212,-0.0214,-0.0268,-0.0268,-0.0267,0,0,0,0,0,0,0.0019,0.0017,-0.0014,-0.0008,-0.0013,-0.0047,-0.0047,-0.0054,-0.0061,-0.0112,-0.0122,-0.008,-0.0159,-0.0169,-0.0189,-0.0169,-0.0213,-0.0216,-0.0269,-0.0268,-0.0268,-0.016,0,0,0,0,0,0,0.002,0.0018,0.0021,-0.0007,-0.0013,-0.0012,-0.0047,-0.0055,-0.0063,-0.0067,-0.0116,-0.0125,-0.016,-0.0184,-0.0193,-0.0174,-0.0219,-0.027,-0.0269,-0.0268,-0.0164,-0.0156,-0.0148,0,0,0,0,0,0.0022,0.0037,0.0022,0.0019,-0.0007,-0.0011,-0.0016,-0.0043,-0.0063,-0.0054,-0.0091,-0.0124,-0.0185,-0.0186,-0.0196,-0.0178,-0.027,-0.0269,-0.0268,-0.0168,-0.0157,-0.0149,0,0,0,0,0,0,0.0051,0.0033,0.0016,0.0024,0.0013,-0.0017,-0.0015,-0.0035,-0.0058,-0.0065,-0.0116,-0.0127,-0.0139,-0.0175,-0.0176,-0.0194,-0.0234,-0.0235,-0.0154,-0.0145,-0.0137,-0.0095,-0.0222,0,0,0,0,0,0.0059,0.0064,0.0043,0.0049,0.0046,0.0016,0.0009,-0.0008,-0.0032,-0.0043,-0.0076,-0.0115,-0.0143,-0.0156,-0.0189,-0.0195,-0.023,-0.0193,-0.0185,-0.0178,-0.0152,-0.0192,-0.0185,-0.0264,-0.0264,-0.0264,0,0,0.0071,0.0061,0.0063,0.0055,0.004,0.0056,0.0011,0.001,0.0026,-0.005,-0.0042,-0.009,-0.014,-0.0147,-0.0156,-0.0173,-0.0176,-0.0177,-0.017,-0.0147,-0.019,-0.0182,-0.0175,-0.0263,-0.0263,-0.0263,0,0,0.0107,0.009,0.0112,0.0114,0.0103,0.0084,0.0089,0.0067,0.0062,0.0057,0.0008,-0.0019,-0.0065,-0.0087,-0.0108,-0.0077,-0.0135,-0.0098,-0.0018,-0.0058,-0.0051,-0.0045,-0.0082,-0.008,-0.009,-0.009,-0.009,0,0.012,0.0148,0.0118,0.0147,0.016,0.0105,0.0143,0.013,0.0105,0.0113,0.0074,0.0021,-0.003,-0.0024,-0.0018,-0.0055,-0.009,-0.0047,-0.0045,-0.004,-0.0036,-0.0075,-0.0075,-0.0085,-0.0085,-0.0086,-0.0087,0,0.0182,0.0205,0.0221,0.0238,0.0247,0.0268,0.0254,0.0258,0.0231,0.0214,0.021,0.0141,0.0116,0.0086,0.0043,0.0051,0.0013,-0.0032,-0.0062,-0.0021,-0.0066,-0.0067,-0.0077,-0.0079,-0.0081,-0.0082,0,0,0.021,0.0256,0.0263,0.0302,0.0303,0.0325,0.0351,0.0368,0.0402,0.0352,0.0391,0.0323,0.028,0.0254,0.0192,0.0154,0.0137,0.0082,0.0077,0.006,0.0052,0.0002,-0.0005,0.0088,0.0088,0.0089,0.0009,0,0.0267,0.0354,0.0355,0.0436,0.0482,0.0463,0.0504,0.051,0.0494,0.0512,0.0442,0.0443,0.0346,0.0339,0.0286,0.0181,0.0138,0.0163,0.0004,-0.0,-0.0038,-0.0007,0.0031,-0.0038,0.0007,0.0007,0.0007,0,0.033,0.0385,0.0485,0.0564,0.0583,0.0624,0.0687,0.0716,0.0715,0.0708,0.0682,0.0617,0.0573,0.0474,0.0328,0.0346,0.0217,0.012,0.0113,0.0035,-0.0052,-0.0073,-0.0044,0.0003,0.0004,0.0004,0.0004,0,0.0388,0.0475,0.0565,0.0594,0.0669,0.0722,0.0756,0.0781,0.0834,0.0838,0.0871,0.078,0.0761,0.0592,0.0378,0.0358,0.0199,0.0141,-0.0024,-0.003,-0.0042,-0.0049,0.0035,0.0036,0.0036,0.0036,0.0036,0,0.0458,0.0529,0.061,0.067,0.079,0.0811,0.0931,0.0948,0.0998,0.109,0.0984,0.1027,0.0789,0.0659,0.0439,0.021,0.0241,0.0008,-0.0047,-0.0006,-0.0009,-0.0011,-0.0015,0.0033,0.0034,0.0034,0.0035,0,0.0515,0.056,0.0676,0.0784,0.0827,0.0917,0.105,0.1134,0.1168,0.1285,0.13,0.122,0.1066,0.0795,0.0525,0.0313,0.0078,-0.0022,0.0041,-0.0005,-0.0138,-0.0136,-0.0186,-0.0189,-0.0191,-0.0192,-0.0194,0,0.0554,0.0622,0.0767,0.0845,0.0904,0.1039,0.1141,0.1215,0.1311,0.1416,0.1479,0.1374,0.1308,0.0882,0.0499,0.0118,0.0061,-0.0105,-0.0141,-0.0108,-0.0157,-0.0152,-0.0148,-0.0119,-0.0119,-0.012,-0.012,0,0.0631,0.0679,0.0778,0.0947,0.1072,0.1216,0.1363,0.147,0.1583,0.1681,0.1773,0.1727,0.1351,0.0973,0.0442,0.0183,-0.0043,-0.0128,-0.01,-0.0072,-0.0052,-0.0098,-0.0094,-0.0125,-0.0124,-0.0124,-0.0124,-0.0124,0.0687,0.0763,0.0896,0.1051,0.1194,0.1374,0.1519,0.1674,0.1851,0.1991,0.1952,0.1892,0.148,0.0801,0.0359,-0.0088,-0.0066,-0.0231,-0.0226,-0.0221,-0.0203,-0.0188,-0.0281,-0.0282,-0.0282,-0.0283,-0.0283,0,0.0755,0.0842,0.0989,0.1177,0.1341,0.1416,0.1653,0.1792,0.2012,0.2099,0.2143,0.1752,0.1329,0.0858,0.0202,-0.0205,-0.0227,-0.0337,-0.0265,-0.0257,-0.0251,-0.0233,-0.0321,-0.0323,-0.0324,-0.0325,0,0,0.0795,0.0933,0.1004,0.1264,0.1409,0.1634,0.1785,0.1978,0.209,0.2159,0.212,0.2006,0.1465,0.0981,0.0437,0.0064,-0.0008,-0.0019,0.0056,0.0214,0.0225,-0.0146,-0.0104,0,0,0,0,0]}],[{"header":{"parameterUnit":"m.s-1","parameterCategory":2,"la1":30.2991,"la2":30.254,"lo1":-89.0895,"lo2":-89.0444,"dy":0.0017,"dx":0.0017,"nx":28,"ny":28,"refTime":"2024-05-24T09:00:00:Z","depth":"4","parameterNumber":2,"parameterNumberName":"U-component_of_CURRENTS"},"data":[0,0,0,0,0,0,0,0,0,0,0,0,0,0,0,0,0,0,0,0,0,0,0,0,0,0,0,0,0,0,0,0,0,0,0,0,0,0,0,0,0,0,0,0,0,0,0,0,0,0,0,0,0,0,0,0,0,0,0.1996,0.1997,0,0.2076,0.2077,0.2077,0.2143,0.2144,0.2145,0.2146,0.2238,0.2239,0.2241,0,0,0,0,0,0,0,0,0,0,0,0,0,0.1892,0.1894,0.1996,0.1997,0.1999,0.2076,0.2077,0.2077,0.2143,0.2144,0.2145,0.2147,0.2237,0.2239,0.2241,0,0,0,0,0,0,0,0,0,0,0,0,0,0.1948,0.1894,0.1996,0.2043,0.2049,0.2076,0.2077,0.2078,0.2143,0.2144,0.2146,0.2147,0.2237,0.2239,0.2241,0.2224,0,0,0.2248,0.2249,0,0,0,0,0,0,0,0,0.1945,0.1951,0.2035,0.204,0.2046,0.2104,0.2074,0.2128,0.2142,0.2103,0.2146,0.2148,0.2195,0.2201,0.2207,0.2228,0.2232,0.2248,0.2249,0.225,0.2251,0,0,0,0,0,0,0,0.1941,0.1948,0.2024,0.2036,0.2043,0.2058,0.2067,0.2084,0.2137,0.2107,0.2113,0.2127,0.2198,0.2205,0.221,0.2234,0.2248,0.225,0.2251,0.2252,0.235,0.2351,0,0,0,0,0,0,0.1937,0.1945,0.2022,0.2027,0.2002,0.2059,0.2069,0.2081,0.2137,0.2148,0.2125,0.213,0.2201,0.2208,0.2214,0.2308,0.225,0.2252,0.2254,0.2348,0.235,0.2351,0,0,0,0,0,0,0.1934,0.1943,0.2019,0.199,0.2002,0.206,0.2072,0.2082,0.2133,0.2152,0.2162,0.2172,0.2202,0.2211,0.2263,0.2308,0.2253,0.2255,0.2347,0.2349,0.2351,0.2426,0,0,0,0,0,0,0.1931,0.1941,0.1968,0.199,0.2003,0.2051,0.2072,0.2083,0.2138,0.2146,0.2194,0.2201,0.2204,0.2259,0.2265,0.231,0.2257,0.2345,0.2348,0.235,0.2422,0.2431,0.2438,0,0,0,0,0,0.1927,0.1948,0.1969,0.1979,0.2031,0.2052,0.206,0.2104,0.2139,0.2157,0.2199,0.2202,0.2278,0.2262,0.2268,0.2316,0.2344,0.2347,0.235,0.2419,0.2429,0.2438,0,0,0,0,0,0,0.1919,0.1957,0.1981,0.2015,0.2042,0.2065,0.2097,0.2126,0.2173,0.2196,0.2217,0.2227,0.2287,0.2286,0.2268,0.2348,0.2312,0.2316,0.2363,0.2372,0.238,0.2411,0.2259,0,0,0,0,0,0.1929,0.1957,0.1987,0.2018,0.2037,0.2076,0.2101,0.2128,0.2163,0.2188,0.2221,0.2259,0.2294,0.2324,0.2341,0.2387,0.2407,0.2421,0.2428,0.2435,0.2463,0.2531,0.2548,0.2361,0.2361,0.2361,0,0,0.1937,0.1962,0.1981,0.202,0.205,0.2075,0.2095,0.2139,0.2177,0.2189,0.2261,0.2286,0.231,0.2362,0.239,0.2376,0.2495,0.2439,0.2444,0.247,0.2536,0.2555,0.2571,0.2363,0.2362,0.2362,0,0,0.1941,0.1988,0.2006,0.2028,0.2076,0.2102,0.2124,0.2166,0.221,0.2268,0.2292,0.2351,0.2397,0.2429,0.2451,0.2512,0.2528,0.2518,0.2595,0.266,0.2677,0.2692,0.2728,0.2746,0.2529,0.2529,0.253,0,0.1955,0.1981,0.2014,0.203,0.2068,0.2119,0.2149,0.2189,0.2247,0.2298,0.2302,0.2418,0.2432,0.2522,0.2547,0.2534,0.2568,0.2559,0.2673,0.2689,0.2703,0.2736,0.2755,0.2533,0.2533,0.2533,0.2532,0,0.1951,0.1993,0.2007,0.2053,0.2092,0.2129,0.2185,0.2246,0.2314,0.2358,0.2469,0.2501,0.2584,0.2588,0.2594,0.2706,0.2695,0.2671,0.2654,0.2727,0.2756,0.2774,0.2539,0.2538,0.2536,0.2536,0,0,0.193,0.1996,0.2006,0.2039,0.2116,0.2141,0.2231,0.2323,0.2402,0.2474,0.258,0.2655,0.2706,0.2735,0.2755,0.2811,0.2926,0.2801,0.2803,0.2845,0.3071,0.2874,0.2874,0.2935,0.2939,0.2942,0.3046,0,0.1929,0.1967,0.201,0.2072,0.2104,0.2194,0.2274,0.2367,0.2457,0.2561,0.2649,0.2741,0.2752,0.281,0.2881,0.2919,0.2981,0.29,0.2988,0.299,0.2814,0.2891,0.2955,0.306,0.3064,0.3067,0.3069,0,0.1903,0.1944,0.2003,0.2105,0.2133,0.2188,0.2348,0.2428,0.2585,0.2657,0.2789,0.285,0.2987,0.2956,0.3115,0.3073,0.3098,0.3107,0.311,0.2919,0.2827,0.2975,0.3102,0.3099,0.3097,0.3094,0.3092,0,0.1857,0.1937,0.1998,0.2026,0.2146,0.2222,0.2318,0.2473,0.2565,0.2738,0.2818,0.2975,0.3082,0.3155,0.3213,0.3189,0.334,0.3295,0.3139,0.3124,0.3238,0.3221,0.3397,0.3397,0.3397,0.3397,0.3396,0,0.1822,0.187,0.1987,0.2013,0.2111,0.2217,0.2347,0.246,0.2633,0.2733,0.2885,0.2974,0.3146,0.3246,0.3263,0.3265,0.3398,0.3176,0.3149,0.3261,0.3246,0.3249,0.3231,0.34,0.34,0.3399,0.3398,0,0.1751,0.1827,0.1893,0.2033,0.2087,0.2166,0.2353,0.2427,0.2621,0.276,0.2826,0.3037,0.3164,0.3273,0.3387,0.332,0.3322,0.3279,0.3401,0.3375,0.305,0.3035,0.3126,0.312,0.3115,0.3111,0.3108,0,0.1704,0.1733,0.1887,0.1922,0.199,0.2121,0.2199,0.2404,0.2484,0.2756,0.2798,0.3008,0.3114,0.3133,0.3253,0.3283,0.3241,0.3228,0.3137,0.3064,0.303,0.3021,0.3013,0.31,0.3098,0.3097,0.3096,0,0.1609,0.169,0.1748,0.1832,0.1906,0.1979,0.2117,0.2166,0.2399,0.2598,0.2711,0.2792,0.2929,0.3019,0.3073,0.3076,0.3228,0.3176,0.3185,0.31,0.3033,0.3002,0.2999,0.3079,0.3081,0.3083,0.3084,0,0.1541,0.1558,0.1642,0.1704,0.1777,0.1796,0.1897,0.1998,0.2123,0.2438,0.2468,0.2678,0.2892,0.2912,0.2946,0.2955,0.2914,0.282,0.2847,0.2867,0.2734,0.2608,0.2522,0,0,0,0,0,0.1456,0.1457,0.1495,0.1538,0.1601,0.1653,0.1806,0.1915,0.2157,0.2176,0.2326,0.243,0.2536,0.265,0.2609,0.2817,0.2904,0.2756,0.2803,0.2983,0.3003,0.2869,0,0,0,0,0,0,0.139,0.1426,0.1445,0.1379,0.1379,0.143,0.1517,0.1683,0.1723,0.1991,0.2064,0.2283,0.2417,0.2529,0.256,0.2595,0.2576,0.2906,0.29,0.2972,0.299,0.3006,0.2875,0,0,0,0,0]},{"header":{"parameterUnit":"m.s-1","parameterCategory":2,"la1":30.2991,"la2":30.254,"lo1":-89.0895,"lo2":-89.0444,"dy":0.0017,"dx":0.0017,"nx":28,"ny":28,"refTime":"2024-05-24T09:00:00:Z","depth":"4","parameterNumber":3,"parameterNumberName":"V-component_of_CURRENTS"},"data":[0,0,0,0,0,0,0,0,0,0,0,0,0,0,0,0,0,0,0,0,0,0,0,0,0,0,0,0,0,0,0,0,0,0,0,0,0,0,0,0,0,0,0,0,0,0,0,0,0,0,0,0,0,0,0,0,0,0,-0.0015,-0.0015,0,-0.0051,-0.0052,-0.0052,-0.0089,-0.009,-0.009,-0.0091,-0.0163,-0.0164,-0.0165,0,0,0,0,0,0,0,0,0,0,0,0,0,-0.0001,-0.0001,-0.0015,-0.0015,-0.0016,-0.0051,-0.0052,-0.0052,-0.0089,-0.009,-0.009,-0.0091,-0.0162,-0.0164,-0.0166,0,0,0,0,0,0,0,0,0,0,0,0,0,-0.0019,-0.0001,-0.0015,-0.0038,-0.0041,-0.0051,-0.0052,-0.0053,-0.0089,-0.009,-0.009,-0.0091,-0.0161,-0.0164,-0.0166,-0.0165,0,0,-0.0173,-0.0174,0,0,0,0,0,0,0,0,-0.0018,-0.002,-0.0034,-0.0037,-0.0039,-0.0066,-0.0073,-0.0092,-0.0089,-0.0071,-0.0091,-0.0091,-0.0133,-0.0138,-0.0143,-0.0169,-0.0172,-0.0173,-0.0174,-0.0175,-0.0176,0,0,0,0,0,0,0,-0.0017,-0.0019,-0.003,-0.0035,-0.0038,-0.0055,-0.0058,-0.0077,-0.0098,-0.0073,-0.0075,-0.0079,-0.0135,-0.014,-0.0145,-0.0173,-0.0173,-0.0175,-0.0176,-0.0177,-0.0199,-0.0199,0,0,0,0,0,0,-0.001,-0.0017,-0.0029,-0.0031,-0.003,-0.0055,-0.0058,-0.0057,-0.0098,-0.0104,-0.0078,-0.008,-0.0136,-0.0142,-0.0148,-0.0135,-0.0175,-0.0177,-0.0178,-0.02,-0.0199,-0.0198,0,0,0,0,0,0,-0.0009,-0.001,-0.0027,-0.0025,-0.0028,-0.0054,-0.0053,-0.0057,-0.0065,-0.0101,-0.0109,-0.008,-0.0137,-0.0144,-0.0157,-0.0139,-0.0178,-0.018,-0.0201,-0.02,-0.0199,-0.012,0,0,0,0,0,0,-0.0008,-0.0009,-0.0007,-0.0024,-0.0028,-0.0022,-0.0052,-0.0058,-0.0065,-0.0069,-0.0105,-0.0113,-0.0138,-0.0153,-0.0159,-0.0143,-0.0182,-0.0202,-0.02,-0.0199,-0.0124,-0.0117,-0.011,0,0,0,0,0,-0.0008,0.0006,-0.0006,-0.0008,-0.0023,-0.0021,-0.0024,-0.0046,-0.0065,-0.0057,-0.0085,-0.0112,-0.0149,-0.0154,-0.0161,-0.0145,-0.0203,-0.0201,-0.0199,-0.0127,-0.0118,-0.0111,0,0,0,0,0,0,0.0013,0.0003,-0.0011,-0.0002,-0.0008,-0.0027,-0.0025,-0.0041,-0.0057,-0.0065,-0.0103,-0.0111,-0.0115,-0.0141,-0.0146,-0.0148,-0.018,-0.018,-0.0123,-0.0115,-0.0108,-0.0097,-0.0184,0,0,0,0,0,0.002,0.0026,0.0013,0.0019,0.0018,-0.0004,-0.0008,-0.0021,-0.0038,-0.0046,-0.007,-0.0097,-0.0113,-0.0123,-0.0142,-0.0142,-0.0184,-0.0137,-0.013,-0.0125,-0.012,-0.017,-0.0167,-0.0193,-0.0193,-0.0193,0,0,0.0029,0.0023,0.0026,0.0024,0.0014,0.0028,-0.0008,-0.0007,0.0004,-0.0051,-0.0045,-0.0075,-0.0108,-0.0107,-0.0111,-0.0127,-0.0139,-0.0122,-0.0117,-0.0116,-0.0168,-0.0165,-0.0163,-0.0192,-0.0192,-0.0192,0,0,0.0058,0.0047,0.0065,0.0068,0.0061,0.005,0.0053,0.0039,0.0032,0.0034,-0.0003,-0.0023,-0.0043,-0.0064,-0.0077,-0.0047,-0.0102,-0.0051,-0.0008,-0.0055,-0.0053,-0.0053,-0.01,-0.0104,-0.0047,-0.0047,-0.0047,0,0.0068,0.0088,0.0071,0.0093,0.0101,0.0065,0.0091,0.0085,0.0068,0.0065,0.0047,0.0009,-0.0022,-0.0026,-0.0013,-0.0031,-0.0069,-0.0033,-0.0046,-0.0046,-0.0047,-0.0096,-0.0101,-0.0043,-0.0043,-0.0044,-0.0044,0,0.0115,0.0131,0.0144,0.0159,0.0168,0.0183,0.0175,0.0177,0.0159,0.0142,0.0133,0.009,0.0066,0.0056,0.0032,0.0021,-0.0008,-0.0033,-0.0066,-0.004,-0.0093,-0.01,-0.0037,-0.0038,-0.004,-0.0041,0,0,0.0134,0.017,0.0174,0.0197,0.0204,0.0219,0.024,0.0245,0.0254,0.0228,0.0234,0.0201,0.0163,0.0146,0.0107,0.0068,0.0032,0.0025,0.002,-0.002,-0.0074,-0.0077,-0.0086,0.0004,0.0003,0.0003,-0.0109,0,0.0173,0.0231,0.0238,0.0291,0.0319,0.0309,0.0338,0.0337,0.0316,0.0313,0.0261,0.0251,0.0203,0.0193,0.0147,0.0061,0.0017,0.0065,-0.0095,-0.01,-0.0104,-0.0093,0.0,-0.0114,-0.0116,-0.0117,-0.0118,0,0.0214,0.0249,0.0314,0.0362,0.0374,0.0405,0.0432,0.0454,0.0435,0.0417,0.0383,0.0336,0.0287,0.024,0.0103,0.0136,0.0041,-0.0032,-0.0039,-0.0074,-0.0116,-0.0148,-0.0132,-0.0131,-0.013,-0.0129,-0.0128,0,0.0238,0.0298,0.0352,0.0372,0.0425,0.0456,0.0481,0.0484,0.0516,0.0482,0.0486,0.0402,0.0377,0.0246,0.0097,0.0098,-0.0066,-0.0088,-0.0183,-0.0185,-0.0185,-0.0185,-0.019,-0.019,-0.019,-0.019,-0.0189,0,0.0274,0.0317,0.0372,0.0409,0.0484,0.0502,0.057,0.0574,0.0594,0.0631,0.0546,0.0545,0.0378,0.0267,0.0114,-0.0054,-0.006,-0.0174,-0.0211,-0.0149,-0.0143,-0.0191,-0.0189,-0.0194,-0.0193,-0.0192,-0.0191,0,0.0295,0.0328,0.0398,0.047,0.0502,0.0558,0.0652,0.0694,0.0698,0.0743,0.0744,0.0658,0.0512,0.0325,0.0108,-0.0013,-0.0191,-0.0254,-0.0172,-0.0204,-0.0282,-0.0276,-0.0361,-0.0362,-0.0363,-0.0363,-0.0364,0,0.0308,0.0349,0.0451,0.0508,0.0548,0.0636,0.0705,0.0746,0.0797,0.0811,0.0837,0.0725,0.0637,0.034,0.0123,-0.0175,-0.0217,-0.0312,-0.0295,-0.0271,-0.0299,-0.0291,-0.0283,-0.0365,-0.0366,-0.0366,-0.0366,0,0.0339,0.0377,0.0443,0.0562,0.0646,0.0747,0.0843,0.0891,0.094,0.0942,0.0924,0.0774,0.0609,0.0363,0.0129,-0.0087,-0.0252,-0.0322,-0.0321,-0.0305,-0.0277,-0.0303,-0.0294,-0.0369,-0.0368,-0.0368,-0.0368,0,0.0368,0.0412,0.0506,0.0616,0.0722,0.0831,0.0877,0.0947,0.1002,0.1015,0.1003,0.0817,0.0716,0.0407,0.0186,-0.0024,-0.0073,-0.0139,-0.0149,-0.0149,-0.0058,0.001,-0.0021,0,0,0,0,0,0.0394,0.0457,0.0554,0.0677,0.0783,0.0853,0.0964,0.1001,0.1044,0.1049,0.1036,0.088,0.0579,0.0447,0.024,0.0148,-0.0131,-0.0105,-0.0217,-0.0385,-0.0381,-0.0312,0,0,0,0,0,0,0.0416,0.0504,0.0557,0.0711,0.0801,0.0925,0.0998,0.1027,0.1037,0.1043,0.0892,0.0824,0.0529,0.07,0.0235,0.017,0.007,-0.0244,-0.0249,-0.0387,-0.0384,-0.0381,-0.0308,0,0,0,0,0]}]]